STARLINK-36571, 67579

Orbit data source: Space-Track

STARLINK-36571, 67579 is a payload satellite owned by SpaceX/Seattle (US) in SSO that was launched on Sun, 25 Jan 2026 UTC via an FALCON 9 launch vehicle from the Air Force Western Test Range (AFWTR). Payload-class satellites include a variety of spacecraft equipped with specific instruments for various scientific and technological missions. These include communications satellites like Starlink; space stations such as the ISS; scientific satellites like the Hubble; Earth observation satellites from companies like Planet Labs, Umbra, and HawkEye 360; GPS; miniature CubeSats for education and research; and military/defense satellites.

Loading next visibility...
Identifier
67579, 2026-016U
Orbit
SSO
Country
Flag of USUS
Related business
Manufacturer
SpaceX/Seattle
Mission
Operational Commercial Communications
Bus & Motor
STARLINK V2MO, Unknown motor
Mass
575 kg wet, ~530 kg dry
Launch date (UTC)
2026-01-25 (5 months ago)
Launch vehicle
FALCON 9
Launch site
Air Force Western Test Range (AFWTR)
Object type
Payload
Rocket body
Debris
Shape & HBR
Box + 2 Pan, 17.7 m
Radar Cross Section
36.964 m², Large (>1 m²)

Expand to show TLE details & history
Last TLE update: 1 day ago

TLE from 1 day ago
0 STARLINK-36571
1 67579U 26016U   26170.73727444  .00005476  00000-0  17185-3 0  9990
2 67579  97.2837 230.7117 0001029  99.1788 260.9571 15.33440994 22508
Epoch: 2026-06-19T17:41Z
TLE epoch observation values (Epoch: 2026-06-19T17:41:40.511Z)
Latitude
-0.00005°
Longitude
57.33095°
Altitude
468.778 km
Speed
7.632 km/s
True Right ascension
15h 22m 50s
True Declination
0° 00' 00"
Sunlit
Object was in full shadow at epoch
Visualization orbit readout
Latitude
Unknown
Longitude
Unknown
Altitude
Unknown
Speed
Unknown
Apparent Right ascension
Unknown
Apparent Declination
Unknown
Sunlit
N/A
Visualization observer readout
Local Sidereal Time
07:24:10
Azimuth
Unknown
Elevation
Unknown
Doppler factor
Unknown
Orbital elements
Apogee altitude
463.202 km
Perigee altitude
461.794 km
Semi-major axis
6,840.635 km
Eccentricity
0.0001
Inclination
97.2837°
RAAN
230.7117°
Arg. of periapsis
99.1788°
True anomaly
260.94546°
Mean anomaly
260.9571°
Eccentric anomaly
260.95128°
Mean motion
3.83618 °/min
Orbital period
93.84 mins
BSTAR
0.00017185
Loading maneuver chart data...
Computing Atmospheric mass density...
Loading historical data...
Loading historical data...
Loading historical data...
Loading historical data...
Loading historical data...
Loading historical data...
Loading historical data...

Documentation

Showing up to 5 results
|